Location: Luz Observatory
(34.5000°N, 117.2833°W)
Time: 07:21:58
(UTC-07:00)

Okean 3 Rocket - Visible Passes

Search period start: 02 August 2015 00:00
Search period end: 12 August 2015 00:00
Orbit: 617 x 645 km, 82.5° (Epoch: 01 August)

Date Brightness Start Highest point End Pass type
(mag) Time Alt. Az. Time Alt. Az. Time Alt. Az.
02 Aug 6.4 01:32:25 10° NNW 01:33:10 15° NNW 01:33:10 15° NNW visible
03 Aug 6.6 00:16:14 10° NNE 00:16:33 11° NNE 00:16:33 11° NNE visible
04 Aug 6.5 00:36:35 10° N 00:37:19 14° N 00:37:19 14° N visible
05 Aug 6.5 00:57:27 10° N 00:58:06 14° N 00:58:06 14° N visible
06 Aug 6.7 01:18:48 10° NNW 01:18:54 11° NNW 01:18:54 11° NNW visible
07 Aug 6.5 00:01:53 10° NNE 00:02:20 12° NNE 00:02:20 12° NNE visible
08 Aug 6.6 00:22:34 10° N 00:23:09 13° N 00:23:09 13° N visible
09 Aug 6.7 00:43:43 10° NNW 00:43:59 11° NNW 00:43:59 11° NNW visible
09 Aug 6.5 23:27:19 10° NNE 23:27:26 11° NNE 23:27:26 11° NNE visible
10 Aug 6.5 23:47:45 10° N 23:48:17 13° N 23:48:17 13° N visible
